• In United Kingdom
  • List of Countries
  • For 7 days
  • Water Temperature
  • Satellite Maps
  • Weather Map
  • Weather Widgets
  • user-avatar
    Login

    Hourly Weather Hrazdan

    Today, 18 February, Sunday

    Time Temperature Precipitation Wind Pressure Humidity
    00:00 -1°C° 0.1 mm 2 mps 609 mmHg 86%
    01:00 -1°C° 0.4 mm 2 mps 609 mmHg 87%
    02:00 -1°C° 0.4 mm 2 mps 608 mmHg 88%
    03:00 +1°C° 0 mm 1 mps 608 mmHg 88%
    04:00 -2°C° 0.5 mm 2 mps 608 mmHg 89%
    05:00 -2°C° 0.5 mm 2 mps 607 mmHg 89%
    06:00 -2°C° 0.5 mm 2 mps 607 mmHg 89%
    07:00 -2°C° 1.1 mm 3 mps 607 mmHg 89%
    08:00 -2°C° 1.1 mm 3 mps 607 mmHg 90%
    09:00 -2°C° 0 mm 3 mps 607 mmHg 89%
    10:00 -2°C° 1.3 mm 3 mps 607 mmHg 89%
    11:00 -1°C° 1.3 mm 3 mps 606 mmHg 89%
    12:00 -1°C° 1.3 mm 3 mps 606 mmHg 89%
    13:00 -1°C° 0.8 mm 3 mps 606 mmHg 89%
    14:00 -1°C° 0.8 mm 3 mps 605 mmHg 88%
    15:00 -2°C° 0 mm 4 mps 605 mmHg 88%
    16:00 -1°C° 0.8 mm 3 mps 605 mmHg 88%
    17:00 -2°C° 0.8 mm 3 mps 605 mmHg 89%
    18:00 -2°C° 0.8 mm 3 mps 605 mmHg 90%
    19:00 -2°C° 0.9 mm 3 mps 605 mmHg 90%
    20:00 -2°C° 0.9 mm 3 mps 606 mmHg 90%
    21:00 -2°C° 0.9 mm 2 mps 606 mmHg 91%
    22:00 -3°C° 0.7 mm 2 mps 606 mmHg 91%
    23:00 -3°C° 0.7 mm 2 mps 606 mmHg 91%

    Tomorrow, 19 February, Monday

    Time Temperature Precipitation Wind Pressure Humidity
    00:00 -3°C° 0.7 mm 2 mps 607 mmHg 91%
    01:00 -3°C° 0.4 mm 2 mps 607 mmHg 91%
    02:00 -3°C° 0.4 mm 2 mps 607 mmHg 91%
    03:00 -3°C° 0.4 mm 2 mps 607 mmHg 91%
    04:00 -3°C° 0.3 mm 2 mps 607 mmHg 91%
    05:00 -3°C° 0.3 mm 2 mps 607 mmHg 91%
    06:00 -4°C° 0.3 mm 2 mps 607 mmHg 91%
    07:00 -1°C° 0.2 mm 1 mps 608 mmHg 89%
    08:00 -1°C° 0.2 mm 1 mps 608 mmHg 88%
    09:00 0°C° 0.2 mm 1 mps 608 mmHg 87%
    10:00 0°C° 0.1 mm 1 mps 608 mmHg 86%
    11:00 +1°C° 0.1 mm 1 mps 608 mmHg 86%
    12:00 +1°C° 0.1 mm 1 mps 609 mmHg 85%
    13:00 +2°C° 0.1 mm 1 mps 608 mmHg 84%
    14:00 +2°C° 0.1 mm 1 mps 608 mmHg 82%
    15:00 +2°C° 0.1 mm 1 mps 608 mmHg 81%
    16:00 +1°C° 0 mm 1 mps 608 mmHg 81%
    17:00 0°C° 0 mm 1 mps 608 mmHg 81%
    18:00 -1°C° 0 mm 1 mps 608 mmHg 81%
    19:00 -2°C° 0 mm 1 mps 608 mmHg 81%
    20:00 -2°C° 0 mm 1 mps 608 mmHg 80%
    21:00 -3°C° 0 mm 1 mps 608 mmHg 79%
    22:00 -3°C° 0 mm 1 mps 608 mmHg 79%
    23:00 -3°C° 0 mm 1 mps 608 mmHg 78%

    Day after tomorrow, 20 February, Tuesday

    Time Temperature Precipitation Wind Pressure Humidity
    00:00 -3°C° 0 mm 1 mps 609 mmHg 78%
    01:00 -4°C° 0 mm 1 mps 609 mmHg 78%
    02:00 -4°C° 0 mm 1 mps 609 mmHg 78%
    03:00 -4°C° 0 mm 1 mps 609 mmHg 79%
    04:00 -4°C° 0 mm 1 mps 609 mmHg 79%
    05:00 -6°C° 0 mm 2 mps 609 mmHg 80%
    06:00 -6°C° 0 mm 2 mps 609 mmHg 80%
    07:00 -5°C° 0 mm 2 mps 609 mmHg 80%
    08:00 -3°C° 0 mm 2 mps 610 mmHg 79%
    09:00 -2°C° 0 mm 2 mps 610 mmHg 78%
    10:00 -1°C° 0 mm 2 mps 610 mmHg 77%
    11:00 -1°C° 0 mm 2 mps 610 mmHg 76%
    12:00 +1°C° 0 mm 2 mps 610 mmHg 75%
    13:00 +2°C° 0 mm 2 mps 610 mmHg 74%
    14:00 +2°C° 0 mm 2 mps 610 mmHg 73%
    15:00 +2°C° 0 mm 2 mps 609 mmHg 72%
    16:00 +1°C° 0 mm 2 mps 609 mmHg 73%
    17:00 0°C° 0 mm 1 mps 609 mmHg 74%
    18:00 -1°C° 0 mm 1 mps 608 mmHg 74%
    19:00 -1°C° 0 mm 1 mps 609 mmHg 73%
    20:00 -2°C° 0 mm 1 mps 609 mmHg 72%
    21:00 -2°C° 0 mm 1 mps 609 mmHg 70%
    22:00 -2°C° 0 mm 1 mps 609 mmHg 71%
    23:00 -3°C° 0 mm 1 mps 609 mmHg 71%

    21 February, Wednesday

    Time Temperature Precipitation Wind Pressure Humidity
    00:00 -3°C° 0 mm 1 mps 609 mmHg 72%
    01:00 -3°C° 0 mm 1 mps 609 mmHg 73%
    02:00 -3°C° 0 mm 1 mps 609 mmHg 73%
    03:00 -3°C° 0 mm 1 mps 609 mmHg 74%
    04:00 -3°C° 0 mm 1 mps 609 mmHg 75%
    05:00 -3°C° 0 mm 1 mps 609 mmHg 75%
    06:00 -3°C° 0 mm 1 mps 609 mmHg 76%
    07:00 -2°C° 0 mm 1 mps 609 mmHg 75%
    08:00 -1°C° 0 mm 1 mps 610 mmHg 75%
    09:00 0°C° 0 mm 1 mps 610 mmHg 75%
    10:00 +1°C° 0 mm 1 mps 610 mmHg 75%
    11:00 +2°C° 0 mm 1 mps 610 mmHg 75%
    12:00 +1°C° 0 mm 2 mps 610 mmHg 75%
    13:00 +2°C° 0 mm 2 mps 610 mmHg 75%
    14:00 +2°C° 0 mm 2 mps 609 mmHg 75%
    15:00 +2°C° 0 mm 2 mps 609 mmHg 76%
    16:00 +2°C° 0 mm 1 mps 609 mmHg 77%
    17:00 0°C° 0 mm 1 mps 608 mmHg 78%
    18:00 -1°C° 0 mm 1 mps 608 mmHg 79%
    19:00 -1°C° 0 mm 1 mps 608 mmHg 78%
    20:00 -1°C° 0 mm 1 mps 609 mmHg 77%
    21:00 -2°C° 0 mm 1 mps 609 mmHg 77%
    22:00 -2°C° 0 mm 1 mps 609 mmHg 76%
    23:00 -2°C° 0 mm 1 mps 609 mmHg 76%

    22 February, Thursday

    Time Temperature Precipitation Wind Pressure Humidity
    00:00 -2°C° 0 mm 1 mps 609 mmHg 75%
    01:00 -2°C° 0 mm 1 mps 608 mmHg 75%
    02:00 -2°C° 0 mm 1 mps 608 mmHg 75%
    03:00 -3°C° 0 mm 1 mps 608 mmHg 75%
    04:00 -3°C° 0 mm 1 mps 608 mmHg 75%
    05:00 -3°C° 0 mm 1 mps 608 mmHg 76%
    06:00 -3°C° 0 mm 1 mps 608 mmHg 76%
    07:00 -2°C° 0 mm 1 mps 609 mmHg 76%
    08:00 -1°C° 0 mm 1 mps 609 mmHg 76%
    09:00 0°C° 0 mm 1 mps 609 mmHg 75%
    10:00 +1°C° 0 mm 1 mps 609 mmHg 75%
    11:00 +2°C° 0 mm 1 mps 609 mmHg 75%
    12:00 +3°C° 0 mm 1 mps 609 mmHg 76%
    13:00 +3°C° 0 mm 1 mps 609 mmHg 75%
    14:00 +4°C° 0 mm 1 mps 608 mmHg 74%
    15:00 +4°C° 0 mm 1 mps 608 mmHg 73%
    16:00 +3°C° 0 mm 1 mps 608 mmHg 74%
    17:00 +2°C° 0 mm 1 mps 607 mmHg 75%
    18:00 0°C° 0 mm 1 mps 607 mmHg 76%
    19:00 0°C° 0 mm 1 mps 607 mmHg 76%
    20:00 0°C° 0 mm 1 mps 608 mmHg 76%
    21:00 0°C° 0 mm 1 mps 608 mmHg 76%
    22:00 -2°C° 0 mm 0 mps 608 mmHg 76%
    23:00 -2°C° 0 mm 0 mps 608 mmHg 76%

    23 February, Friday

    Time Temperature Precipitation Wind Pressure Humidity
    00:00 -2°C° 0 mm 0 mps 608 mmHg 76%
    01:00 -2°C° 0 mm 0 mps 607 mmHg 76%
    02:00 -3°C° 0 mm 0 mps 607 mmHg 77%
    03:00 -3°C° 0 mm 0 mps 607 mmHg 77%
    04:00 -3°C° 0 mm 0 mps 607 mmHg 78%
    05:00 -3°C° 0 mm 0 mps 607 mmHg 78%
    06:00 -3°C° 0 mm 0 mps 607 mmHg 79%
    07:00 -1°C° 0 mm 1 mps 608 mmHg 78%
    08:00 0°C° 0 mm 1 mps 609 mmHg 78%
    09:00 +1°C° 0 mm 1 mps 609 mmHg 77%
    10:00 +1°C° 0 mm 1 mps 609 mmHg 78%
    11:00 +2°C° 0 mm 1 mps 609 mmHg 78%
    12:00 +3°C° 0 mm 1 mps 609 mmHg 78%
    13:00 +3°C° 0.1 mm 1 mps 609 mmHg 78%
    14:00 +3°C° 0.1 mm 1 mps 608 mmHg 78%
    15:00 +3°C° 0.1 mm 1 mps 608 mmHg 77%
    16:00 +2°C° 0 mm 1 mps 608 mmHg 80%
    17:00 +2°C° 0 mm 1 mps 608 mmHg 82%
    18:00 +1°C° 0 mm 1 mps 608 mmHg 84%
    19:00 0°C° 0 mm 1 mps 608 mmHg 85%
    20:00 0°C° 0 mm 1 mps 609 mmHg 87%
    21:00 0°C° 0 mm 1 mps 609 mmHg 88%
    22:00 -1°C° 0 mm 1 mps 609 mmHg 88%
    23:00 -1°C° 0 mm 1 mps 609 mmHg 89%
    Show more